Regional Weather Roundup
Issued by NWS

Home | Current Version | Previous Version | Text Only | Print | Product List | Glossary On
Versions: 1 2 3 4 5 6 7 8 9 10 11 12 13 14 15 16 17 18 19 20 21 22 23 24 25 26 27 28 29 30 31 32 33 34 35 36 37 38 39 40 41 42 43 44 45 46 47 48 49 50
000
ASUS43 KMPX 191710
RWRMN
WEATHER ROUNDUP FOR MINNESOTA
NATIONAL WEATHER SERVICE TWIN CITIES/CHANHASSEN MN
1200 PM CDT THU APR 19 2018


NOTE: "FAIR" INDICATES FEW OR NO CLOUDS BELOW 12,000 FEET WITH NO
SIGNIFICANT WEATHER AND/OR OBSTRUCTIONS TO VISIBILITY. N/A MEANS
CURRENT SKY AND/OR WEATHER CONDITIONS ARE NOT AVAILABLE.

MNZ060>063-068>070-191800-
   Twin Cities Metro

CITY           SKY/WX    TMP DP  RH WIND       PRES   REMARKS
TWIN CITIES    FAIR      46  19  34 W8        30.48R
ST PAUL        FAIR      45  16  31 NW8       30.49R
CRYSTAL        FAIR      45  15  30 NW8       30.47R
BLAINE         SUNNY     46  18  31 W8        30.47R
LAKEVILLE      FAIR      45  18  33 CALM      30.48S
EDEN PRAIRIE   FAIR      47  17  30 NW7       30.47R
SOUTH ST PAUL  FAIR      46  15  29 NW7       30.48R
LAKE ELMO      FAIR      45  19  36 NW3       30.48S
$$
MNZ001>005-007-008-013>017-022>024-027-028-191800-
   Northwest Minnesota

CITY           SKY/WX    TMP DP  RH WIND       PRES   REMARKS
BEMIDJI        FAIR      48  13  23 CALM      30.42R
HALLOCK        FAIR      52  28  40 CALM      30.41S
ROSEAU         FAIR      50  18  27 W3        30.41S
WARROAD        FAIR      52  16  24 NW5       30.41S
THIEF RVR FALL FAIR      49  16  26 W6        30.43R
CROOKSTON      FAIR      46  28  49 W5        30.44R
FOSSTON        FAIR      52  19  28 CALM      30.43R
DETROIT LAKES  FAIR      50  21  32 CALM      30.44S
MOORHEAD       FAIR      50  34  53 S8        30.44S
PARK RAPIDS    FAIR      49  15  25 SW3       30.42R
MAHNOMEN       FAIR      50  25  37 SW8       30.43R
$$
MNZ006-009>011-018-025>026-191800-
   North Central Minnesota

CITY           SKY/WX    TMP DP  RH WIND       PRES   REMARKS
BAUDETTE       FAIR      51  16  24 NW6       30.41S
FLAG ISLAND    FAIR      37  19  48 SE5       30.41S
INTL FALLS     FAIR      48  11  22 VRB3      30.41R
WASKISH        FAIR      48  16  27 W5        30.42S
BIG FORK       FAIR      52  10  19 NE3       30.41S
LONGVILLE      FAIR      50  10  20 N5        30.42R
GRAND RAPIDS   FAIR      48  12  23 VRB5      30.44R
CRANE LAKE     FAIR      46  10  23 NE3       30.43S
ORR            FAIR      46   9  21 W5        30.39S
COOK           FAIR      48  12  23 W3        30.41S
WALKER         FAIR      49  11  21 N5        30.42R
$$
MNZ012-019>021-037-191800-
   Northeast Minnesota

CITY           SKY/WX    TMP DP  RH WIND       PRES   REMARKS
DULUTH         FAIR      47  14  26 N12G17    30.40S
ELY            FAIR      46  10  23 NW12      30.39S
HIBBING        FAIR      47  14  26 N5        30.41R
EVELETH        FAIR      47  14  26 N7        30.42S
DULUTH HARBOR  FAIR      48  19  32 CALM      30.43S
TWO HARBORS    FAIR      55  27  33 W8        30.38S
SILVER BAY     FAIR      48  19  32 S9        30.37S
GRAND MARAIS     N/A     40  28  62 W7        30.39S
G MARAIS ARPRT FAIR      45   7  21 N7        30.37R
$$
MNZ029>031-032-039>041-046>048-054>057-064-191800-
   West Central Minnesota

CITY           SKY/WX    TMP DP  RH WIND       PRES   REMARKS
FERGUS FALLS   FAIR      46  34  61 W5        30.44S
WHEATON        SUNNY     48  30  49 NW3       30.48R
MORRIS         SUNNY     46  32  57 SW10      30.46R
ALEXANDRIA     FAIR      49  23  36 SW9       30.46S
ELBOW LAKE     FAIR      47  32  57 W9        30.46S
WADENA         FAIR      46  23  39 SW7       30.44R
GLENWOOD       FAIR      48  25  40 S10       30.47R
APPLETON       SUNNY     46  21  36 S8        30.48R
BENSON         SUNNY     48  23  37 SW10      30.49S
ORTONVILLE     SUNNY     50  30  46 S6        30.47R
MADISON        SUNNY     45  30  57 S7        30.48R
WILLMAR        FAIR      45  25  45 SW8       30.51R
$$
MNZ033>034-036-042>043-049>051-058-059-191800-
   Central Minnesota

CITY           SKY/WX    TMP DP  RH WIND       PRES   REMARKS
ST CLOUD       FAIR      49  18  29 VRB5      30.46R
SAUK CENTRE    FAIR      46  24  42 SW10G16   30.47R
PAYNESVILLE    FAIR      47  24  40 W7        30.48R
AITKIN         FAIR      48  16  27 SW6       30.42S
PINE RIVER     FAIR      46  18  31 NW6       30.45S
BRAINERD       FAIR      50  16  25 W7        30.44R
STAPLES        FAIR      46  19  34 W6        30.45R
LONG PRAIRIE   FAIR      46  27  46 S12       30.46R
LITTLE FALLS   FAIR      46   9  21 W7        30.47R
LITCHFIELD     FAIR      46  21  36 W8        30.49R
BUFFALO        FAIR      46  16  29 SW6       30.50R
MAPLE LAKE     FAIR      48  21  34 SW3       30.49S
HUTCHINSON     FAIR      44  27  51 W3        30.50S
$$
MNZ037-044-045-052-053-191800-
   East Central Minnesota

CITY           SKY/WX    TMP DP  RH WIND       PRES   REMARKS
PRINCETON      FAIR      50  19  29 W3        30.47R
MORA           FAIR      50  19  29 W8        30.47R
CAMBRIDGE      FAIR      48  27  43 W9        30.46S
RUSH CITY      FAIR      48  19  30 SW6       30.46S
MOOSE LAKE     FAIR      48  18  29 CALM      30.41S
HINCKLEY       FAIR      50  21  32 CALM      30.44S
CLOQUET        FAIR      48   9  20 W3        30.41S
MCGREGOR       FAIR      50  18  27 NW7       30.43S
$$
MNZ071>073-080-081-089-090-097-098-191800-
   Southwest Minnesota

CITY           SKY/WX    TMP DP  RH WIND       PRES   REMARKS
MONTEVIDEO     SUNNY     45  19  36 SW9       30.49S
GRANITE FALLS  SUNNY     41  28  60 S6        30.51R
CANBY          SUNNY     45  21  39 SW6       30.50R
MARSHALL       SUNNY     41  20  43 S10       30.49S
REDWOOD FALLS  SUNNY     41  24  51 S6        30.50R
OLIVIA         SUNNY     43  27  52 SW7       30.49R
PIPESTONE      SUNNY    N/A N/A N/A S5        30.47R
WINDOM           N/A     39  18  41 CALM      30.50R
WORTHINGTON    SUNNY     36  18  48 NE3       30.50R
JACKSON        SUNNY     34  23  64 CALM      30.51R
TRACY          SUNNY     41  23  48 S6        30.49R
SLAYTON        SUNNY     39  23  52 CALM      30.49R
$$
MNZ065>067-074>077-082>085-091>093-191800-
   South Central Minnesota

CITY           SKY/WX    TMP DP  RH WIND       PRES   REMARKS
MANKATO        FAIR      42  22  44 CALM      30.51R
NEW ULM        SUNNY     43  18  36 NW5       30.51R
ST JAMES       SUNNY     36  25  64 NW3       30.52S
FAIRMONT       SUNNY     35  22  58 N5        30.52R WCI  31
GLENCOE        FAIR      43  21  41 CALM      30.49R
OWATONNA       FAIR      37  25  60 CALM      30.49R
WASECA         FAIR      36  27  69 CALM      30.51R
ALBERT LEA     FAIR      36  18  48 N5        30.49R
$$
MNZ078>079-086>088-094>096-191800-
   Southeast Minnesota

CITY           SKY/WX    TMP DP  RH WIND       PRES   REMARKS
ROCHESTER      FAIR      37  26  64 NW8       30.47R
RED WING       FAIR      46   9  21 N8        30.47R
STANTON        FAIR      41  22  46 SW3       30.48R
DODGE CENTER   FAIR      37  19  48 N8        30.48R
WINONA         FAIR      41  28  60 NW5       30.46R
AUSTIN         FAIR      37  19  48 N8        30.48R
PRESTON        FAIR      37  24  59 NW8       30.47R
$$
ABBREVIATIONS USED IN REMARKS
   TC - TEMPERATURES IN CELSIUS
  WCI - WIND CHILL INDEX
   HX - HEAT INDEX
  VSB - VISIBILITY
$$




USA.gov is the U.S. government's official web portal to all federal, state and local government web resources and services.